Regional Weather Roundup
Issued by NWS

Home | Current Version | Previous Version | Graphics & Text | Print | Product List | Glossary Off
Versions: 1 2 3 4 5 6 7 8 9 10 11 12 13 14 15 16 17 18 19 20 21 22 23 24 25 26 27 28 29 30 31 32 33 34 35 36 37 38 39 40 41 42 43 44 45 46 47 48 49 50

000
ASUS43 KMKX 301621
RWRWI

WISCONSIN REGIONAL WEATHER ROUNDUP
NATIONAL WEATHER SERVICE MILWAUKEE/SULLIVAN WI
1100 AM CDT SUN APR 30 2017

NOTE: "FAIR" INDICATES FEW OR NO CLOUDS BELOW 12,000 FEET WITH NO
SIGNIFICANT WEATHER AND/OR OBSTRUCTIONS TO VISIBILITY.

WIZ001-002-006>008-014>016-023>028-301700-
NORTHWEST WISCONSIN

CITY           SKY/WX    TMP DP  RH WIND       PRES   REMARKS
SUPERIOR ARPT  CLOUDY    40  32  73 NE17G23   30.15R WCI  31
ASHLAND        CLOUDY    42  32  67 NE14      30.12F
HAYWARD        CLOUDY    46  25  43 NE9       30.06F
SIREN          CLOUDY    43  25  49 NE9       30.06F
CUMBERLAND     LGT RAIN  43  30  61 NE9       30.03F
RICE LAKE      DRIZZLE   44  30  57 NE9       30.04F
CHETEK         LGT RAIN  44  30  57 E9G18     30.03F
LADYSMITH      CLOUDY    46  30  54 E13G18    30.04F
EAU CLAIRE     CLOUDY    46  32  58 NE16      29.99F
MENOMONIE      CLOUDY    45  31  58 NE10      30.00S
NEW RICHMOND   LGT RAIN  42  31  66 NE10G18   30.02S
OSCEOLA        LGT RAIN  44  31  61 NE8G16    30.05F
$$

WIZ003>005-009-010-017-018-301700-
NORTH CENTRAL WISCONSIN

CITY           SKY/WX    TMP DP  RH WIND       PRES   REMARKS
MANITOWISH WTR CLOUDY    46  26  44 E16G23    30.06R
ARBOR VITAE    CLOUDY    45  27  49 E8G16     30.06R
WOODRUFF       CLOUDY    45  27  49 E8G16     30.06R
RHINELANDER    CLOUDY    46  29  51 E16       30.07R
EAGLE RIVER    CLOUDY    45  26  47 E10       30.07R
LAND O LAKES   CLOUDY    46  25  43 E7        30.10R
PHILLIPS       CLOUDY    45  28  51 E9        30.03F
TOMAHAWK       CLOUDY    44  30  57 E8        30.05S
MEDFORD        CLOUDY    43  33  68 E17G23    30.00F
MERRILL        CLOUDY    45  33  63 E14G20    30.04F
$$

WIZ029-030-035-036-043>047-301700-
CENTRAL WISCONSIN

CITY           SKY/WX    TMP DP  RH WIND       PRES   REMARKS
WAUSAU         CLOUDY    44  32  62 E16       30.01R
MOSINEE        CLOUDY    43  36  75 E14       30.03R
MARSHFIELD     CLOUDY    43  34  70 E18G25    29.98S
STEVENS POINT  CLOUDY    39  36  89 NE14G20   30.01R WCI  30
WAUPACA        CLOUDY    43  39  86 NE12G22   30.02R
WAUTOMA        CLOUDY    41  37  87 E15G22    29.99
WISC RAPIDS    CLOUDY    42  37  82 E12G23    30.00S
CAMP DOUGLAS   CLOUDY    41  39  93 NE10      29.97F
$$

WIZ011>013-019>022-031-037>040-048>050-301700-
NORTHEAST WISCONSIN

CITY           SKY/WX    TMP DP  RH WIND       PRES   REMARKS
ANTIGO         CLOUDY    43  31  63 E14G26    30.03R
SHAWANO        CLOUDY    41  38  88 NE16G22   30.03F FOG
OCONTO         CLOUDY    38  36  95 NE10G21   30.06  WCI  30
STURGEON BAY   MIX PCPN  37  36  96 NE16G23   30.05S FOG     WCI  28
GREEN BAY      CLOUDY    41  40  96 NE21G28   30.00F FOG
MANITOWOC      CLOUDY    39  37  92 NE13G18   29.99S WCI  31
APPLETON       CLOUDY    39  37  93 NE18G25   29.97S WCI  30
CLINTONVILLE   CLOUDY    41  36  81 NE16G23   30.00F
OSHKOSH        CLOUDY    41  37  86 NE15G28   29.95F
$$

WIZ032>034-041-042-053>061-301700-
SOUTHWEST WISCONSIN

CITY           SKY/WX    TMP DP  RH WIND       PRES   REMARKS
LA CROSSE      CLOUDY    45  36  70 E9        29.97R
SPARTA         CLOUDY    42  37  83 E13G21    29.97S
VIROQUA        CLOUDY    40  37  88 E13G21    29.94R WCI  33
BOSCOBEL       CLOUDY    44  38  79 NE8       29.94R
PRAIRIE DU CHI CLOUDY    43  37  79 NE10      29.91F
PLATTEVILLE    CLOUDY    42  41  96 NE18      29.90S
$$

WIZ056-057-062-063-064-067-068-301700-
SOUTH CENTRAL WISCONSIN

CITY           SKY/WX    TMP DP  RH WIND       PRES   REMARKS
REEDSBURG      NOT AVBL
BARABOO/DELLS  CLOUDY    40  38  93 NE9G17    29.95R FOG     WCI  34
LONE ROCK      CLOUDY    43  38  82 E12       29.94R
MINERAL POINT  CLOUDY    43  43 100 NE13      29.91R
MADISON        DRIZZLE   41  40  96 NE12      29.92R FOG
MIDDLETON      CLOUDY    42  42  99 E13       29.94R
WATERTOWN      CLOUDY    41  41 100 NE9       29.91R FOG
MONROE         LGT RAIN  41  39  93 NE12G21   29.90R
JANESVILLE     LGT RAIN  45  43  93 E16       29.89R FOG
$$

WIZ051-052-058>065-066-070>072-301700-
SOUTHEAST WISCONSIN

CITY           SKY/WX    TMP DP  RH WIND       PRES   REMARKS
MILWAUKEE      LGT RAIN  43  42  97 N12       29.92R VSB 3/4
WAUKESHA       FOG       39  39 100 NE14      29.92R VSB 1   WCI  31
MILWAUKEE/TIMM DRIZZLE   39  37  93 NE13      29.92R WCI  32
RACINE         LGT RAIN  42  40  92 NE10      29.91R VSB 1
KENOSHA        LGT RAIN  43  41  93 NE12      29.89R VSB 1
FOND DU LAC    CLOUDY    41  37  86 NE16G28   29.94S
SHEBOYGAN      LGT RAIN  40  38  93 NE21G31   29.94F FOG     WCI  30
WEST BEND      LGT RAIN  39  39 100 NE16G28   29.92F WCI  30
JUNEAU         CLOUDY    40  38  95 NE12G18   29.93R FOG     WCI  33
$$

LSZ147-162-301700-
LAKE SUPERIOR

STATION/POSITION TIME  TEMP    WIND        PRES    WAVE
                       AIR SEA DIR/SP/G            HT/PER
                 (UTC) (F)     (DEG/KT/KT) (MB)    (FT/S)
DEVILS ISLAND    1600   37      50/ 18/ 20 1021.8R
PORT WING        1530   39      40/ 16/ 19 1020.3S
SAXON HARBOR     1530   38      40/ 10/ 12 1019.6R
$$

LMZ867-665-643>646-301700-
LAKE MICHIGAN

STATION/POSITION TIME  TEMP    WIND        PRES    WAVE
                       AIR SEA DIR/SP/G            HT/PER
                 (UTC) (F)     (DEG/KT/KT) (MB)    (FT/S)
CHAMBERS ISLAND  1540   37      40/ 14/ 21 1018.3F
N MID LAKE BUOY  1550   37 37   80/ 19/ 25 1019.1F   5/ 5
NORTHPORT PIER   1600   37      60/ 20     1020.3
KEWAUNEE LAKESHO 1554   39      30/ 17/ 23 1016.3S
SHEBOYGAN LAKESH 1600   39      20/ 21/ 25 1014.6R
PORT WASHINGTON  1540   41      30/ 12/ 17 1014.9R
MILWAUKEE LAKESH 1600   40      10/ 13/ 16   N/A
S MID LAKE BUOY  1550   42 40   60/ 19/ 23 1009.9F   5/ 5
KENOSHA   LAKESH 1600   42      20/ 13/ 15 1012.2
$$

TC  - TEMPERATURE IN CELSIUS
VSB - VISIBILITY IN STATUTE MILES
WCI - WIND CHILL INDEX
HX  - HEAT INDEX




USA.gov is the U.S. government's official web portal to all federal, state and local government web resources and services.